User: anonymous   Login
Location: Turtle Rock Observatory
(36.6913°N, 81.9708°W)
Time: 00:42:07
(UTC-05:00)
Language:

Cosmos 1125 Rocket - Orbit

View from above orbital plane
View from above orbital plane
View from above satellite
View from above satellite

Ground track
Ground track

The orbit data is extracted from the following two-line orbital elements,

1 11511U 79078B   16042.78271679  .00000143  00000-0  57488-4 0  9994
2 11511  74.0375 138.4492 0014919 146.2391 213.9716 14.36689396908043
Epoch (UTC): 11 February 2016 18:47:06
Eccentricity: 0.0014919
inclination: 74.0375°
perigee height: 759 km
apogee height: 780 km
right ascension of ascending node: 138.4492°
argument of perigee: 146.2391°
revolutions per day: 14.36689396
mean anomaly at epoch: 213.9716°
orbit number at epoch: 90804

The dashed part of the orbit path shows where the satellite is in the earth's shadow,  

DLR